Weather History for Thermopolis, WY

Change the Weather History Date:

Friday, June 28, 2013

  Actual Average (KWRL) Record (KWRL)
Temperature  
Mean Temperature 70 °F 69 °F  
Max Temperature 78 °F 85 °F 103 °F (1966)
Min Temperature 62 °F 52 °F 42 °F (1965)
Degree Days  
Heating Degree Days 0 1  
Month to date heating degree days 90  
Since 1 June heating degree days 90  
Since 1 July heating degree days 7866  
Cooling Degree Days 5 5  
Month to date cooling degree days 73  
Year to date cooling degree days 85  
Since 1 June cooling degree days 73  
Growing Degree Days 20 (Base 50)    
Moisture  
Dew Point 44 °F    
Average Humidity 40    
Maximum Humidity 55    
Minimum Humidity 26    
Precipitation  
Precipitation 0.00 in 0.02 in 0.33 in (1969)
Month to date precipitation 1.10  
Year to date precipitation 4.26  
Sea Level Pressure  
Sea Level Pressure 30.53 in    
Wind  
Wind Speed 12 mph (NNW)    
Max Wind Speed 26 mph    
Max Gust Speed 29 mph    
Visibility 10 miles    
Events      
T = Trace of Precipitation, MM = Missing Value Source: NWS Daily Summary

Daily Weather History Graph

Daily Weather History Graph

Search for Another Location

Airport:

Trip Planner

Search our weather history database for the weather conditions in past years. The results will help you decide how hot, cold, wet, or windy it might be!

Date:

Astronomy

Jun. 28, 2013 Rise Set
Actual Time 5:34 AM MDT 8:57 PM MDT
Civil Twilight 4:58 AM MDT 9:33 PM MDT
Nautical Twilight 4:12 AM MDT 10:20 PM MDT
Astronomical Twilight 3:14 AM MDT 11:18 PM MDT
Moon No Moon Rise 11:57 AM MDT (6/28)
Length of Visible Light 16h 34m
Length of Day
15h 23m
Waning Gibbous, 65% of the Moon is Illuminated
Jun 28
Waning Gibbous
Jun 29
Last Quarter
Jul 8
New
Jul 15
First Quarter
Jul 22
Full

Hourly Weather History & Observations

Time (MDT) Temp. Dew Point Humidity Pressure Visibility Wind Dir Wind Speed Gust Speed Precip Events Conditions
12:15 AM 64.4 °F 42.8 °F 45% 30.54 in 10.0 mi NNW 15.0 mph - N/A   Clear
12:35 AM 64.4 °F 44.6 °F 49% 30.55 in 10.0 mi NNW 13.8 mph - N/A   Clear
12:55 AM 64.4 °F 44.6 °F 49% 30.55 in 10.0 mi NNW 12.7 mph - N/A   Clear
1:15 AM 64.4 °F 44.6 °F 49% 30.55 in 10.0 mi North 11.5 mph - N/A   Clear
1:35 AM 66.2 °F 42.8 °F 43% 30.55 in 10.0 mi NNW 10.4 mph - N/A   Clear
1:55 AM 66.2 °F 42.8 °F 43% 30.55 in 10.0 mi NNW 9.2 mph - N/A   Clear
2:15 AM 68.0 °F 42.8 °F 40% 30.55 in 10.0 mi North 8.1 mph - N/A   Clear
2:35 AM 68.0 °F 42.8 °F 40% 30.55 in 10.0 mi North 6.9 mph - N/A   Clear
2:55 AM 68.0 °F 42.8 °F 40% 30.56 in 10.0 mi North 6.9 mph - N/A   Clear
3:15 AM 68.0 °F 42.8 °F 40% 30.56 in 10.0 mi NNE 5.8 mph - N/A   Clear
3:35 AM 64.4 °F 42.8 °F 45% 30.56 in 10.0 mi SSE 4.6 mph - N/A   Clear
3:55 AM 64.4 °F 44.6 °F 49% 30.55 in 10.0 mi SSE 4.6 mph - N/A   Clear
4:15 AM 64.4 °F 42.8 °F 45% 30.55 in 10.0 mi SE 4.6 mph - N/A   Clear
4:35 AM 66.2 °F 42.8 °F 43% 30.55 in 10.0 mi SSE 4.6 mph - N/A   Clear
4:55 AM 64.4 °F 42.8 °F 45% 30.55 in 10.0 mi SSE 4.6 mph - N/A   Clear
5:15 AM 64.4 °F 42.8 °F 45% 30.55 in 10.0 mi SE 5.8 mph - N/A   Clear
5:35 AM 62.6 °F 44.6 °F 52% 30.55 in 10.0 mi SSE 8.1 mph - N/A   Clear
5:55 AM 62.6 °F 44.6 °F 52% 30.55 in 10.0 mi SSE 10.4 mph - N/A   Clear
6:15 AM 62.6 °F 44.6 °F 52% 30.55 in 10.0 mi South 10.4 mph - N/A   Clear
6:55 AM 62.6 °F 44.6 °F 52% 30.56 in 10.0 mi South 10.4 mph - N/A   Clear
7:15 AM 62.6 °F 44.6 °F 52% 30.56 in 10.0 mi South 9.2 mph - N/A   Clear
7:35 AM 62.6 °F 46.4 °F 55% 30.56 in 10.0 mi South 11.5 mph - N/A   Clear
7:55 AM 64.4 °F 46.4 °F 52% 30.57 in 10.0 mi South 10.4 mph - N/A   Clear
8:15 AM 64.4 °F 46.4 °F 52% 30.57 in 10.0 mi South 8.1 mph - N/A   Clear
8:35 AM 64.4 °F 46.4 °F 52% 30.57 in 10.0 mi South 6.9 mph - N/A   Clear
8:55 AM 66.2 °F 46.4 °F 49% 30.57 in 10.0 mi South 3.5 mph - N/A   Clear
9:15 AM 68.0 °F 46.4 °F 46% 30.57 in 10.0 mi SSE 3.5 mph - N/A   Clear
9:35 AM 68.0 °F 46.4 °F 46% 30.57 in 10.0 mi ESE 6.9 mph - N/A   Clear
9:55 AM 69.8 °F 46.4 °F 43% 30.56 in 10.0 mi ESE 10.4 mph - N/A   Clear
10:15 AM 69.8 °F 46.4 °F 43% 30.56 in 10.0 mi ESE 12.7 mph 16.1 mph N/A   Clear
10:35 AM 69.8 °F 46.4 °F 43% 30.56 in 10.0 mi ESE 10.4 mph 16.1 mph N/A   Clear
10:55 AM 71.6 °F 44.6 °F 38% 30.56 in 10.0 mi East 8.1 mph - N/A   Clear
11:15 AM 71.6 °F 44.6 °F 38% 30.56 in 10.0 mi NNE 3.5 mph - N/A   Clear
11:35 AM 71.6 °F 44.6 °F 38% 30.56 in 10.0 mi South 4.6 mph - N/A   Clear
11:55 AM 73.4 °F 44.6 °F 36% 30.56 in 10.0 mi Calm Calm - N/A   Clear
12:15 PM 75.2 °F 46.4 °F 36% 30.56 in 10.0 mi NNW 9.2 mph - N/A   Clear
12:35 PM 75.2 °F 46.4 °F 36% 30.56 in 10.0 mi North 11.5 mph 18.4 mph N/A   Clear
12:55 PM 73.4 °F 46.4 °F 38% 30.55 in 10.0 mi NNW 13.8 mph 17.3 mph N/A   Clear
1:15 PM 75.2 °F 44.6 °F 34% 30.55 in 10.0 mi NNW 12.7 mph - N/A   Clear
1:35 PM 75.2 °F 44.6 °F 34% 30.54 in 10.0 mi NNW 18.4 mph 21.9 mph N/A   Clear
1:55 PM 75.2 °F 44.6 °F 34% 30.54 in 10.0 mi NNW 15.0 mph 26.5 mph N/A   Clear
2:15 PM 75.2 °F 44.6 °F 34% 30.54 in 10.0 mi NNW 18.4 mph 27.6 mph N/A   Clear
2:35 PM 77.0 °F 44.6 °F 32% 30.54 in 10.0 mi North 18.4 mph 25.3 mph N/A   Clear
2:55 PM 77.0 °F 42.8 °F 29% 30.54 in 10.0 mi North 18.4 mph 25.3 mph N/A   Clear
3:15 PM 77.0 °F 42.8 °F 29% 30.53 in 10.0 mi NNW 17.3 mph 23.0 mph N/A   Clear
3:35 PM 78.8 °F 42.8 °F 28% 30.52 in 10.0 mi NNW 16.1 mph 25.3 mph N/A   Clear
3:55 PM 78.8 °F 41.0 °F 26% 30.52 in 10.0 mi North 16.1 mph 23.0 mph N/A   Clear
4:15 PM 78.8 °F 42.8 °F 28% 30.51 in 10.0 mi NNW 25.3 mph 28.8 mph N/A   Clear
4:35 PM 78.8 °F 41.0 °F 26% 30.51 in 10.0 mi NNW 19.6 mph 27.6 mph N/A   Clear
4:55 PM 78.8 °F 41.0 °F 26% 30.51 in 10.0 mi NW 18.4 mph 28.8 mph N/A   Clear
5:15 PM 78.8 °F 41.0 °F 26% 30.50 in 10.0 mi NW 20.7 mph 24.2 mph N/A   Clear
5:35 PM 75.2 °F 41.0 °F 29% 30.50 in 10.0 mi NNW 19.6 mph 24.2 mph N/A   Clear
5:55 PM 73.4 °F 41.0 °F 31% 30.49 in 10.0 mi NNW 19.6 mph - N/A   Clear
6:15 PM 73.4 °F 41.0 °F 31% 30.49 in 10.0 mi NNW 18.4 mph - N/A   Clear
6:35 PM 73.4 °F 41.0 °F 31% 30.48 in 10.0 mi NNW 19.6 mph - N/A   Clear
6:55 PM 73.4 °F 42.8 °F 33% 30.49 in 10.0 mi NNW 17.3 mph - N/A   Clear
7:15 PM 71.6 °F 42.8 °F 35% 30.48 in 10.0 mi NNW 20.7 mph - N/A   Clear
7:35 PM 71.6 °F 42.8 °F 35% 30.49 in 10.0 mi NNW 19.6 mph - N/A   Clear
7:55 PM 71.6 °F 42.8 °F 35% 30.49 in 10.0 mi NNW 17.3 mph - N/A   Clear
8:15 PM 71.6 °F 42.8 °F 35% 30.49 in 10.0 mi NNW 17.3 mph - N/A   Clear
8:35 PM 73.4 °F 42.8 °F 33% 30.49 in 10.0 mi NNW 16.1 mph - N/A   Clear
8:55 PM 71.6 °F 41.0 °F 33% 30.49 in 10.0 mi NNW 17.3 mph - N/A   Clear
9:15 PM 69.8 °F 41.0 °F 35% 30.49 in 10.0 mi NNW 17.3 mph - N/A   Clear
9:35 PM 69.8 °F 41.0 °F 35% 30.50 in 10.0 mi NNW 18.4 mph - N/A   Clear
9:55 PM 69.8 °F 42.8 °F 38% 30.50 in 10.0 mi NNW 26.5 mph - N/A   Clear
10:15 PM 68.0 °F 42.8 °F 40% 30.51 in 10.0 mi NNW 23.0 mph - N/A   Clear
10:35 PM 68.0 °F 42.8 °F 40% 30.51 in 10.0 mi NNW 24.2 mph - N/A   Clear
10:55 PM 68.0 °F 42.8 °F 40% 30.51 in 10.0 mi NNW 24.2 mph - N/A   Clear
11:15 PM 66.2 °F 42.8 °F 43% 30.52 in 10.0 mi NNW 21.9 mph - N/A   Clear
11:35 PM 68.0 °F 42.8 °F 40% 30.53 in 10.0 mi NNW 21.9 mph - N/A   Mostly Cloudy
11:55 PM 66.2 °F 42.8 °F 43% 30.52 in 10.0 mi NNW 21.9 mph - N/A   Mostly Cloudy